Theodore Francis Green State Airport

Airport
ICAO code: 
KPVD
Summary
ICAO Region: 
NAM
Territory: 
Location: 
Providence/Warwick, Rhode Island,
Serving: 
Providence
Coordinates: 
Aerial View: 
41° 43' 28.584" N, 71° 25' 31.165" W
Airport WX: 
Cumulonimbus
Metar
Observation
KPVD 260651Z 24003KT 10SM CLR 09/07 A3037 RMK AO2 SLP284 T00890067
Station
Providence, Theodore Francis Green State Airport
Date/Time
2022-05-26 06:51:00
Wind direction
240°
Wind speed
03 kts
Lowest cloud amount
n/a
Temperature
8.9°C
Dew point
6.7°C
Humidity
86%
Weather condition
n/a

Description

The main airport serving Rhode Island is at Providence and is also known as Theodore Francis Green Memorial State Airport.

Climatology

Humid “subtropical”/Continental climate (Köppen climate classification Cfa/Dfa) - characterized by hot, humid summers and cool/cold winters. Significant amounts of precipitation occur in all seasons in most areas. Winter rainfall (and snowfall) is associated with large storms that the westerlies steer from west to east. Most summer rainfall occurs during thunderstorms.

Runways

Designator Length Width Surface Rops
16/34 1853 46 ASP Yes/Yes
5/23 2184 46 ASP Yes/Yes
Airport map: 
Aerial View: 

Accidents and Serious Incidents at or in the vicinity of KPVD

SKYbrary Partners:

Safety knowledge contributed by: